SCP
0 0 0 0 0 0 0 0 0 0 0 0 0 0 0 0 0 0 0 0 0 0 0 0 0 0 0 0 0 0 0 0 0 0 0 0 0 0 0 0 0 0 0 0
0 0 0 0 0 0 0 0 0 0 0 0 0 0 0 0 0 0 0 0 0 0 0 0 0 0 0 0 0 0 0 0 0 0 0 0 0 0 0 0 0 0 0 0
0 0 0 0 0 0 0 0 0 0 0 0 0 0 0 0 0 0 0 0 0 0 0 0 0 0 0 0 0 0 0 0 0 0 0 0 0 0 0 0 0 0 0 0
0 0 0 0 0 0 0 0 0 0 0 0 0 0 0 0 0 0 0 0 0 0 0 0 0 0 0 0 0 0 0 0 0 0 0 0 0 0 0 0 0 0 0 0
0 0 0 0 0 0 0 0 0 0 0 0 0 0 0 0 0 0 0 0 0 0 0 0 0 0 0 0 0 0 0 0 0 0 0 0 0 0 0 0 0 0 0 0
0 0 0 0 0 0 0 0 0 0 0 0 0 0 0 0 0 0 0 0 0 0 0 0 0 0 0 0 0 0 0 0 0 0 0 0 0 0 0 0 0 0 0 0
0 0 0 0 0 0 0 0 0 0 0 0 0 0 0 0 0 0 0 0 0 0 0 0 0 0 0 0 0 0 0 0 0 0 0 0 0 0 0 0 0 0 0 0
0 0 0 -0 0 -0 0 0 0 0 0 0 0 0 0 0 0 0 0 0 0 0 0 0 0 0 0 0 0 0 0 0 0 0 0 0 0 0 0 0 0 0 0 0
0 0 0 0 0 0 0 0 0 0 0 0 0 0 0 0 0 0 0 0 0 0 0 0 0 0 0 0 0 0 0 0 0 0 0 0 0 0 0 0 0 0 0 0
0 0 0 0 0 0 0 0 0 0 0 0 0 0 0 0 0 0 0 0 0 0 0 0 0 0 0 0 0 0 0 0 0 0 0 0 0 0 0 0 0 0 0 0
0 0 0 0 0 0 0 0 0 0 0 0 0 0 0 0 0 0 0 0 0 0 0 0 0 0 0 0 0 0 0 0 0 0 0 0 0 0 0 0 0 0 0 0
0 0 0 0 0 0 0 0 0 0 0 0 0 0 0 0 0 0 0 0 0 0 0 0 0 0 0 0 0 0 0 0 0 0 0 0 0 0 0 0 0 0 0 0
0 0 0 0 0 0 0 0 0 0 0 0 0 0 0 0 0 0 0 0 0 0 0 0 0 0 0 0 0 0 0 0 0 0 0 0 0 0 0 0 0 0 0 0
0 0 0 0 0 0 0 0 0 0 0 0 0 0 0 0 0 0 0 0 0 0 0 0 0 0 0 0 0 0 0 0 0 0 0 0 0 0 0 0 0 0 0 0
0 0 0 0 0 0 0 0 0 0 0 0 0 0 0 0 0 0 0 0 0 0 0 0 0 0 0 0 0 0 0 0 0 0 0 0 0 -0 0 0 0 0 0 0
0 0 0 0 0 0 0 0 0 0 0 0 0 0 0 0 0 0 0 0 0 0 0 0 0 0 0 0 0 0 0 0 0 0 0 0 0 0 0 0 0 0 0 0
0 0 0 0 0 0 0 0 0 0 0 0 0 0 0 0 0 0 0 0 0 0 0 0 0 0 0 0 0 0 0 0 0 0 0 0 0 0 0 0 0 0 0 0
0 0 0 0 0 0 0 0 0 0 0 0 0 0 0 0 0 0 0 0 0 0 0 0 0 0 0 0 0 0 0 0 0 0 0 0 0 0 0 0 0 0 0 0
0 0 0 0 0 0 0 0 0 0 0 0 0 0 0 0 0 0 0 0 0 0 0 0 0 0 0 0 0 0 0 0 0 0 0 0 0 0 0 0 0 0 0 0
0 0 0 0 0 0 0 0 0 0 0 0 0 0 0 0 0 0 0 0 0 0 0 0 0 0 0 0 0 0 0 0 0 0 0 0 0 0 0 0 0 0 0 0
0 0 0 0 0 0 0 0 0 0 0 0 0 0 0 0 0 0 0 0 0 0 0 0 0 0 0 0 0 0 0 0 0 0 0 0 0 0 0 0 0 0 0 0
0 0 0 0 0 0 0 0 0 0 0 0 0 0 0 0 0 0 0 0 0 0 0 0 0 0 0 0 0 0 0 0 0 0 0 0 0 0 0 0 0 0 0 0
0 0 0 0 0 0 0 0 0 0 0 0 0 0 0 0 0 0 0 0 0 0 0 0 0 0 0 0 0 0 0 0 0 0 0 0 0 0 0 0 0 0 0 0
0 0 0 0 0 0 0 0 0 0 0 0 0 0 0 0 0 0 0 0 0 0 0 0 0 0 0 0 0 0 0 0 0 0 0 0 0 0 0 0 0 0 0 0
0 0 0 0 0 0 0 0 0 0 0 0 0 0 0 0 0 0 0 0 0 0 0 0 0 0 0 0 0 0 0 0 0 0 0 0 0 0 0 0 0 0 0 0
0 0 0 0 0 0 0 0 0 0 0 0 0 0 0 0 0 0 0 0 0 0 0 0 0 0 0 0 0 0 0 0 0 0 0 0 0 0 0 0 0 0 0 0
0 0 0 0 0 0 0 0 0 0 0 0 0 0 0 0 0 0 0 0 0 0 0 0 0 0 0 0 0 0 0 0 0 0 0 0 0 0 0 0 0 0 0 0
Wind_Speed_500mb
43 40 37 47 51 62 46 54 17 44 113 43 33 40 71 55 47 37 30 14 38 29 28 29 33 38 29 51 35 31 21 5 12 23 2 4 22 21 27 13 13 9 6 12
42 40 37 37 45 58 52 30 26 73 104 30 29 30 53 42 39 51 29 24 22 20 27 21 36 24 18 39 37 35 25 11 10 7 7 4 17 19 27 13 4 25 14 10
32 40 36 33 37 47 59 19 5 24 69 46 47 47 44 49 65 36 60 38 23 11 27 26 18 24 14 41 41 42 50 16 32 34 11 20 21 29 29 34 20 32 40 22
43 43 35 33 31 36 55 26 10 9 9 24 30 43 24 51 43 51 54 29 52 49 34 37 47 18 8 10 18 18 23 30 39 42 19 13 16 36 42 51 62 31 40 40
39 40 37 32 32 32 56 24 9 5 7 8 33 31 35 43 39 22 41 48 48 44 51 51 31 39 27 20 17 18 4 25 33 38 41 29 26 33 50 55 54 52 31 31
46 32 36 32 30 24 14 43 39 20 8 1 9 19 28 27 16 3 8 25 39 44 56 57 43 19 31 24 31 35 25 28 15 32 29 9 13 53 40 35 42 39 40 29
54 41 36 36 28 29 28 16 19 15 14 23 18 8 21 27 26 15 6 8 3 10 21 24 18 30 24 14 7 11 23 36 15 11 12 20 12 6 33 34 24 24 3 9
44 52 45 33 27 28 30 26 9 12 5 13 6 22 28 34 24 15 15 14 13 35 14 5 6 4 3 2 7 6 4 13 8 9 14 12 2 8 18 24 28 21 25 9
39 46 45 45 34 29 28 25 18 10 2 9 9 7 15 9 10 7 4 10 36 21 5 6 11 11 9 11 5 5 3 9 15 8 11 17 2 5 8 9 11 16 29 15
42 43 44 43 43 28 26 24 27 15 7 10 18 7 10 16 12 7 9 15 8 11 6 7 9 9 3 14 17 13 8 5 25 13 11 9 9 13 18 13 8 16 36 36
49 45 44 42 46 44 29 24 25 26 11 10 19 15 13 13 16 10 17 13 3 4 9 9 7 6 10 7 6 10 18 17 9 7 10 18 19 12 16 7 18 32 34 40
45 49 47 45 44 51 41 29 29 31 13 7 24 28 19 21 24 18 34 3 8 16 7 6 6 5 7 12 9 5 9 7 8 14 6 4 40 7 12 25 31 30 37 40
51 48 49 49 46 53 51 40 39 33 14 7 14 19 29 27 22 17 14 8 14 12 12 7 4 5 6 10 9 6 9 10 7 8 9 6 33 15 26 24 28 32 33 34
58 48 51 51 48 49 62 59 53 46 14 7 8 17 17 27 23 24 20 8 22 24 16 5 4 4 5 4 1 7 4 19 11 2 2 6 25 26 37 42 37 37 32 29
49 49 53 50 54 47 65 62 59 55 13 10 7 11 16 22 30 30 18 15 25 11 5 4 4 7 7 1 2 8 13 11 9 6 24 11 33 54 49 53 49 38 31 33
56 52 55 52 54 53 69 25 62 54 38 9 5 8 8 16 22 27 20 27 20 10 9 4 3 6 5 8 7 2 20 29 25 10 32 33 22 30 53 55 51 43 38 38
56 51 50 52 53 57 48 21 19 68 55 15 6 4 5 22 30 23 27 22 12 9 8 4 8 5 9 2 7 15 31 33 27 21 25 30 28 21 28 43 47 41 41 44
58 53 49 48 46 48 43 33 19 74 49 20 8 5 8 24 8 8 13 11 10 5 8 7 5 8 2 9 8 29 30 29 32 33 30 24 25 29 27 26 28 32 39 42
52 48 48 40 47 26 45 50 41 61 25 14 9 17 12 28 10 11 8 9 4 5 4 6 13 7 10 12 13 29 39 36 25 28 37 36 35 34 33 33 33 38 42 42
46 44 22 16 24 41 29 38 45 28 24 16 6 17 8 23 13 7 11 6 7 7 7 16 6 8 45 28 39 32 25 37 34 25 33 40 44 42 40 40 40 41 42 42
52 28 13 35 53 34 22 10 10 10 8 14 13 12 13 18 8 7 5 7 9 9 8 12 8 8 1 16 21 30 34 33 37 40 41 40 40 38 36 36 36 38 43 45
29 23 43 36 12 7 8 4 5 6 8 7 10 13 17 16 13 6 12 7 6 10 17 9 7 4 11 21 11 10 11 15 21 27 30 31 35 36 34 32 30 33 37 42
42 25 13 18 7 7 10 13 4 8 8 19 18 11 14 12 9 6 6 10 6 21 7 8 6 5 18 27 21 12 14 14 14 16 21 23 25 27 29 28 29 33 36 38
5 6 11 8 9 8 7 7 9 9 21 41 31 12 7 9 5 6 9 5 9 11 11 11 3 17 28 27 25 22 18 17 16 12 10 12 15 18 20 22 23 25 28 29
6 6 6 6 11 10 8 19 20 16 48 39 19 14 11 3 7 5 8 6 6 9 7 4 10 20 23 23 20 18 15 11 6 1 2 6 10 12 14 17 18 19 21 23
7 14 7 4 8 3 9 18 14 25 37 21 17 7 6 3 8 7 6 15 11 4 4 6 14 18 21 19 18 19 18 16 12 7 4 5 7 8 9 14 16 18 18 19
8 7 21 10 19 12 10 12 11 29 16 5 6 8 7 6 6 6 7 4 4 4 6 10 17 18 18 16 17 17 14 12 10 9 7 7 10 12 14 16 20 21 22 21
Wind_Direction_500mb
275 275 272 254 247 253 235 248 230 210 202 194 204 207 211 215 212 216 228 231 221 209 181 196 206 204 207 194 153 176 198 188 197 206 139 306 233 222 191 201 189 245 306 248
270 277 282 274 243 238 237 228 245 185 191 203 200 222 216 225 204 206 210 210 201 194 188 213 207 202 201 170 169 172 170 206 219 220 218 182 219 205 217 213 45 211 198 220
264 272 280 283 260 233 228 255 230 192 201 209 203 206 219 210 223 222 215 227 208 177 215 222 209 215 190 199 197 195 163 183 210 225 205 156 203 205 207 206 227 227 233 241
256 267 273 279 283 246 224 229 207 227 204 200 196 203 208 221 220 214 204 216 213 216 225 230 234 185 151 206 217 188 191 223 218 238 233 204 207 195 197 209 224 216 242 228
253 257 261 272 278 272 210 200 170 201 305 279 206 183 208 214 216 182 212 220 219 221 218 213 217 225 205 202 180 191 191 228 215 241 241 234 235 217 204 211 223 235 247 240
251 265 249 259 267 272 256 218 215 202 251 343 261 215 198 200 148 126 203 227 225 216 226 229 240 212 221 202 185 190 184 209 183 236 217 191 262 228 205 210 218 222 224 237
247 254 253 247 248 254 254 269 182 195 215 200 206 194 214 204 197 173 184 121 150 152 116 110 79 68 73 111 30 231 192 204 212 229 129 219 272 5 217 211 196 211 232 152
248 252 251 249 245 242 261 246 230 164 236 211 165 205 216 225 203 183 189 195 159 154 107 97 110 37 87 63 16 77 118 166 156 188 208 323 104 201 169 179 231 197 219 157
250 244 249 251 244 239 236 232 241 227 133 225 152 167 173 156 156 119 123 159 161 162 114 153 189 192 160 191 154 21 141 214 202 154 207 225 263 175 170 129 251 199 184 137
254 248 243 246 238 221 223 224 231 225 217 227 172 173 177 141 131 122 136 149 160 150 135 185 191 192 151 167 179 168 160 184 215 198 222 273 201 169 151 148 237 154 180 173
251 247 237 230 235 232 218 224 214 208 215 213 209 181 151 147 169 152 145 114 158 137 196 181 179 185 193 139 139 178 180 169 188 176 217 249 145 115 178 152 133 159 178 186
258 244 242 228 225 226 228 214 210 204 206 208 215 216 198 187 174 142 171 5 154 155 155 173 134 161 180 155 189 173 211 204 185 201 203 58 167 85 171 154 157 169 171 181
251 246 241 224 226 221 222 221 214 188 195 203 196 214 216 205 185 181 147 206 170 167 132 133 128 163 158 167 213 158 228 169 202 162 176 197 183 128 170 161 167 182 175 174
246 246 237 228 224 219 219 226 215 195 165 172 201 205 201 209 204 209 216 175 173 158 137 105 139 140 218 192 33 229 142 147 145 40 112 121 194 185 189 197 184 177 183 191
242 245 232 232 225 220 213 224 205 192 204 165 168 166 196 206 204 205 203 185 176 141 104 105 140 128 140 43 270 240 184 150 172 194 186 161 195 212 197 196 196 194 208 213
235 241 228 234 217 209 193 191 218 195 208 163 152 153 167 185 184 186 174 177 169 138 135 127 120 160 164 167 213 307 177 177 160 162 179 191 190 204 213 213 210 216 231 227
229 236 227 232 204 211 193 180 199 192 191 162 118 117 118 150 148 156 168 171 158 148 122 129 145 146 167 213 229 159 181 173 176 169 173 204 200 202 223 228 223 234 242 230
223 232 222 225 210 216 214 168 137 184 177 166 142 109 149 165 134 121 147 141 142 135 126 119 117 112 96 248 137 178 176 184 196 195 209 228 224 229 229 228 237 246 238 233
218 220 211 212 208 205 207 212 218 192 188 159 154 154 173 163 131 127 124 137 137 157 154 175 154 163 221 230 181 192 201 204 226 223 227 235 248 255 258 255 249 241 240 236
206 205 179 181 176 188 169 159 175 180 196 156 113 132 135 165 146 136 131 143 146 166 211 137 194 242 251 252 251 252 249 239 237 225 222 233 247 253 257 255 252 249 253 251
196 192 146 143 144 155 182 195 160 155 195 143 142 139 131 187 147 135 187 159 162 168 186 175 185 255 4 315 268 254 253 251 255 260 264 264 263 264 262 259 253 255 256 254
189 146 134 149 125 122 160 161 127 139 160 136 134 147 124 141 147 123 165 159 161 185 143 164 205 224 4 350 337 317 288 263 258 257 260 261 262 263 263 258 251 243 241 243
163 151 143 144 143 158 170 166 158 138 169 160 158 127 123 123 146 119 156 150 166 125 160 202 230 27 343 347 337 331 315 304 289 267 255 256 256 256 253 251 245 240 240 241
94 100 139 141 146 211 195 168 137 125 139 137 124 101 130 130 122 134 126 75 145 175 176 223 53 343 341 347 347 337 329 310 297 284 256 239 235 238 239 236 233 232 231 228
94 119 127 141 114 67 105 97 109 107 144 135 112 89 89 107 119 100 119 137 154 192 216 58 347 343 351 357 6 10 6 357 343 318 184 212 208 208 211 206 205 207 205 200
86 44 104 92 92 94 67 64 81 116 132 113 77 91 104 118 128 129 165 151 193 133 62 359 348 359 3 4 19 31 38 43 46 51 82 137 153 161 173 166 162 163 166 175
69 67 51 51 61 73 80 85 81 145 138 110 103 100 176 107 104 99 9 105 80 54 47 18 9 12 7 13 36 38 39 48 68 76 92 123 134 140 146 159 155 155 156 162
Wind_Speed_850mb
43 40 37 47 51 62 46 54 17 44 113 43 33 40 71 55 47 37 30 14 38 29 28 29 33 38 29 51 35 31 21 5 12 23 2 4 22 21 27 13 13 9 6 12
42 40 37 37 45 58 52 30 26 73 104 30 29 30 53 42 39 51 29 24 22 20 27 21 36 24 18 39 37 35 25 11 10 7 7 4 17 19 27 13 4 25 14 10
32 40 36 33 37 47 59 19 5 24 69 46 47 47 44 49 65 36 60 38 23 11 27 26 18 24 14 41 41 42 50 16 32 34 11 20 21 29 29 34 20 32 40 22
43 43 35 33 31 36 55 26 10 9 9 24 30 43 24 51 43 51 54 29 52 49 34 37 47 18 8 10 18 18 23 30 39 42 19 13 16 36 42 51 62 31 40 40
39 40 37 32 32 32 56 24 9 5 7 8 33 31 35 43 39 22 41 48 48 44 51 51 31 39 27 20 17 18 4 25 33 38 41 29 26 33 50 55 54 52 31 31
46 32 36 32 30 24 14 43 39 20 8 1 9 19 28 27 16 3 8 25 39 44 56 57 43 19 31 24 31 35 25 28 15 32 29 9 13 53 40 35 42 39 40 29
54 41 36 36 28 29 28 16 19 15 14 23 18 8 21 27 26 15 6 8 3 10 21 24 18 30 24 14 7 11 23 36 15 11 12 20 12 6 33 34 24 24 3 9
44 52 45 33 27 28 30 26 9 12 5 13 6 22 28 34 24 15 15 14 13 35 14 5 6 4 3 2 7 6 4 13 8 9 14 12 2 8 18 24 28 21 25 9
39 46 45 45 34 29 28 25 18 10 2 9 9 7 15 9 10 7 4 10 36 21 5 6 11 11 9 11 5 5 3 9 15 8 11 17 2 5 8 9 11 16 29 15
42 43 44 43 43 28 26 24 27 15 7 10 18 7 10 16 12 7 9 15 8 11 6 7 9 9 3 14 17 13 8 5 25 13 11 9 9 13 18 13 8 16 36 36
49 45 44 42 46 44 29 24 25 26 11 10 19 15 13 13 16 10 17 13 3 4 9 9 7 6 10 7 6 10 18 17 9 7 10 18 19 12 16 7 18 32 34 40
45 49 47 45 44 51 41 29 29 31 13 7 24 28 19 21 24 18 34 3 8 16 7 6 6 5 7 12 9 5 9 7 8 14 6 4 40 7 12 25 31 30 37 40
51 48 49 49 46 53 51 40 39 33 14 7 14 19 29 27 22 17 14 8 14 12 12 7 4 5 6 10 9 6 9 10 7 8 9 6 33 15 26 24 28 32 33 34
58 48 51 51 48 49 62 59 53 46 14 7 8 17 17 27 23 24 20 8 22 24 16 5 4 4 5 4 1 7 4 19 11 2 2 6 25 26 37 42 37 37 32 29
49 49 53 50 54 47 65 62 59 55 13 10 7 11 16 22 30 30 18 15 25 11 5 4 4 7 7 1 2 8 13 11 9 6 24 11 33 54 49 53 49 38 31 33
56 52 55 52 54 53 69 25 62 54 38 9 5 8 8 16 22 27 20 27 20 10 9 4 3 6 5 8 7 2 20 29 25 10 32 33 22 30 53 55 51 43 38 38
56 51 50 52 53 57 48 21 19 68 55 15 6 4 5 22 30 23 27 22 12 9 8 4 8 5 9 2 7 15 31 33 27 21 25 30 28 21 28 43 47 41 41 44
58 53 49 48 46 48 43 33 19 74 49 20 8 5 8 24 8 8 13 11 10 5 8 7 5 8 2 9 8 29 30 29 32 33 30 24 25 29 27 26 28 32 39 42
52 48 48 40 47 26 45 50 41 61 25 14 9 17 12 28 10 11 8 9 4 5 4 6 13 7 10 12 13 29 39 36 25 28 37 36 35 34 33 33 33 38 42 42
46 44 22 16 24 41 29 38 45 28 24 16 6 17 8 23 13 7 11 6 7 7 7 16 6 8 45 28 39 32 25 37 34 25 33 40 44 42 40 40 40 41 42 42
52 28 13 35 53 34 22 10 10 10 8 14 13 12 13 18 8 7 5 7 9 9 8 12 8 8 1 16 21 30 34 33 37 40 41 40 40 38 36 36 36 38 43 45
29 23 43 36 12 7 8 4 5 6 8 7 10 13 17 16 13 6 12 7 6 10 17 9 7 4 11 21 11 10 11 15 21 27 30 31 35 36 34 32 30 33 37 42
42 25 13 18 7 7 10 13 4 8 8 19 18 11 14 12 9 6 6 10 6 21 7 8 6 5 18 27 21 12 14 14 14 16 21 23 25 27 29 28 29 33 36 38
5 6 11 8 9 8 7 7 9 9 21 41 31 12 7 9 5 6 9 5 9 11 11 11 3 17 28 27 25 22 18 17 16 12 10 12 15 18 20 22 23 25 28 29
6 6 6 6 11 10 8 19 20 16 48 39 19 14 11 3 7 5 8 6 6 9 7 4 10 20 23 23 20 18 15 11 6 1 2 6 10 12 14 17 18 19 21 23
7 14 7 4 8 3 9 18 14 25 37 21 17 7 6 3 8 7 6 15 11 4 4 6 14 18 21 19 18 19 18 16 12 7 4 5 7 8 9 14 16 18 18 19
8 7 21 10 19 12 10 12 11 29 16 5 6 8 7 6 6 6 7 4 4 4 6 10 17 18 18 16 17 17 14 12 10 9 7 7 10 12 14 16 20 21 22 21
Wind_Direction_850mb
275 275 272 254 247 253 235 248 230 210 202 194 204 207 211 215 212 216 228 231 221 209 181 196 206 204 207 194 153 176 198 188 197 206 139 306 233 222 191 201 189 245 306 248
270 277 282 274 243 238 237 228 245 185 191 203 200 222 216 225 204 206 210 210 201 194 188 213 207 202 201 170 169 172 170 206 219 220 218 182 219 205 217 213 45 211 198 220
264 272 280 283 260 233 228 255 230 192 201 209 203 206 219 210 223 222 215 227 208 177 215 222 209 215 190 199 197 195 163 183 210 225 205 156 203 205 207 206 227 227 233 241
256 267 273 279 283 246 224 229 207 227 204 200 196 203 208 221 220 214 204 216 213 216 225 230 234 185 151 206 217 188 191 223 218 238 233 204 207 195 197 209 224 216 242 228
253 257 261 272 278 272 210 200 170 201 305 279 206 183 208 214 216 182 212 220 219 221 218 213 217 225 205 202 180 191 191 228 215 241 241 234 235 217 204 211 223 235 247 240
251 265 249 259 267 272 256 218 215 202 251 343 261 215 198 200 148 126 203 227 225 216 226 229 240 212 221 202 185 190 184 209 183 236 217 191 262 228 205 210 218 222 224 237
247 254 253 247 248 254 254 269 182 195 215 200 206 194 214 204 197 173 184 121 150 152 116 110 79 68 73 111 30 231 192 204 212 229 129 219 272 5 217 211 196 211 232 152
248 252 251 249 245 242 261 246 230 164 236 211 165 205 216 225 203 183 189 195 159 154 107 97 110 37 87 63 16 77 118 166 156 188 208 323 104 201 169 179 231 197 219 157
250 244 249 251 244 239 236 232 241 227 133 225 152 167 173 156 156 119 123 159 161 162 114 153 189 192 160 191 154 21 141 214 202 154 207 225 263 175 170 129 251 199 184 137
254 248 243 246 238 221 223 224 231 225 217 227 172 173 177 141 131 122 136 149 160 150 135 185 191 192 151 167 179 168 160 184 215 198 222 273 201 169 151 148 237 154 180 173
251 247 237 230 235 232 218 224 214 208 215 213 209 181 151 147 169 152 145 114 158 137 196 181 179 185 193 139 139 178 180 169 188 176 217 249 145 115 178 152 133 159 178 186
258 244 242 228 225 226 228 214 210 204 206 208 215 216 198 187 174 142 171 5 154 155 155 173 134 161 180 155 189 173 211 204 185 201 203 58 167 85 171 154 157 169 171 181
251 246 241 224 226 221 222 221 214 188 195 203 196 214 216 205 185 181 147 206 170 167 132 133 128 163 158 167 213 158 228 169 202 162 176 197 183 128 170 161 167 182 175 174
246 246 237 228 224 219 219 226 215 195 165 172 201 205 201 209 204 209 216 175 173 158 137 105 139 140 218 192 33 229 142 147 145 40 112 121 194 185 189 197 184 177 183 191
242 245 232 232 225 220 213 224 205 192 204 165 168 166 196 206 204 205 203 185 176 141 104 105 140 128 140 43 270 240 184 150 172 194 186 161 195 212 197 196 196 194 208 213
235 241 228 234 217 209 193 191 218 195 208 163 152 153 167 185 184 186 174 177 169 138 135 127 120 160 164 167 213 307 177 177 160 162 179 191 190 204 213 213 210 216 231 227
229 236 227 232 204 211 193 180 199 192 191 162 118 117 118 150 148 156 168 171 158 148 122 129 145 146 167 213 229 159 181 173 176 169 173 204 200 202 223 228 223 234 242 230
223 232 222 225 210 216 214 168 137 184 177 166 142 109 149 165 134 121 147 141 142 135 126 119 117 112 96 248 137 178 176 184 196 195 209 228 224 229 229 228 237 246 238 233
218 220 211 212 208 205 207 212 218 192 188 159 154 154 173 163 131 127 124 137 137 157 154 175 154 163 221 230 181 192 201 204 226 223 227 235 248 255 258 255 249 241 240 236
206 205 179 181 176 188 169 159 175 180 196 156 113 132 135 165 146 136 131 143 146 166 211 137 194 242 251 252 251 252 249 239 237 225 222 233 247 253 257 255 252 249 253 251
196 192 146 143 144 155 182 195 160 155 195 143 142 139 131 187 147 135 187 159 162 168 186 175 185 255 4 315 268 254 253 251 255 260 264 264 263 264 262 259 253 255 256 254
189 146 134 149 125 122 160 161 127 139 160 136 134 147 124 141 147 123 165 159 161 185 143 164 205 224 4 350 337 317 288 263 258 257 260 261 262 263 263 258 251 243 241 243
163 151 143 144 143 158 170 166 158 138 169 160 158 127 123 123 146 119 156 150 166 125 160 202 230 27 343 347 337 331 315 304 289 267 255 256 256 256 253 251 245 240 240 241
94 100 139 141 146 211 195 168 137 125 139 137 124 101 130 130 122 134 126 75 145 175 176 223 53 343 341 347 347 337 329 310 297 284 256 239 235 238 239 236 233 232 231 228
94 119 127 141 114 67 105 97 109 107 144 135 112 89 89 107 119 100 119 137 154 192 216 58 347 343 351 357 6 10 6 357 343 318 184 212 208 208 211 206 205 207 205 200
86 44 104 92 92 94 67 64 81 116 132 113 77 91 104 118 128 129 165 151 193 133 62 359 348 359 3 4 19 31 38 43 46 51 82 137 153 161 173 166 162 163 166 175
69 67 51 51 61 73 80 85 81 145 138 110 103 100 176 107 104 99 9 105 80 54 47 18 9 12 7 13 36 38 39 48 68 76 92 123 134 140 146 159 155 155 156 162